CST,Max TemperatureF,Mean TemperatureF,Min TemperatureF,Max Dew PointF,MeanDew PointF,Min DewpointF,Max Humidity, Mean Humidity, Min Humidity, Max Sea Level PressureIn, Mean Sea Level PressureIn, Min Sea Level PressureIn, Max VisibilityMiles, Mean VisibilityMiles, Min VisibilityMiles, Max Wind SpeedMPH, Mean Wind SpeedMPH, Max Gust SpeedMPH,PrecipitationIn, CloudCover, Events, WindDirDegrees
2012-10-1,90,82,75,77,73,71,89,69,45,29.86,29.79,29.72,17,9,6,7,2,,0.00,4,Thunderstorm,199
2012-10-2,93,83,73,77,74,72,97,71,52,29.88,29.84,29.77,17,8,5,12,2,,0.00,5,Rain-Thunderstorm,337
2012-10-3,95,84,74,72,71,70,89,63,39,29.87,29.82,29.77,17,9,6,12,4,,1.18,4,Rain-Thunderstorm,25
2012-10-4,95,84,71,72,70,68,94,60,28,29.92,29.88,29.81,17,9,6,9,4,,1.54,3,Rain-Thunderstorm,30
2012-10-5,94,84,73,72,71,70,89,58,41,29.88,29.83,29.78,17,9,6,9,3,,0.00,3,Thunderstorm,27
2012-10-6,91,88,86,73,72,70,66,56,49,,,,6,6,6,5,2,,0.00,4,,161
2012-10-7,91,82,73,74,73,72,97,70,46,29.82,29.78,29.74,17,9,6,9,2,,0.04,4,Thunderstorm,163
2012-10-8,93,83,73,77,75,72,100,75,47,29.86,29.80,29.75,17,6,2,14,5,,0.20,4,Thunderstorm,97
2012-10-9,91,82,73,79,75,73,100,87,61,29.91,29.83,29.76,17,7,1,12,2,,0.43,7,Rain-Thunderstorm,170
2012-10-10,90,82,74,76,75,73,100,74,52,29.90,29.85,29.76,17,8,2,12,1,,0.00,6,Thunderstorm,0
2012-10-11,92,82,73,78,76,72,97,75,54,29.88,29.79,29.67,17,8,3,16,7,,0.00,3,Rain-Thunderstorm,68
2012-10-12,95,84,74,76,73,72,92,65,47,29.89,29.81,29.74,17,8,6,14,6,,0.00,5,Thunderstorm,30
2012-10-13,94,84,75,77,73,72,94,67,42,29.91,29.83,29.78,17,8,6,16,10,,0.00,4,Thunderstorm,33
2012-10-14,93,83,73,75,73,70,100,66,42,29.88,29.83,29.75,17,8,1,16,9,,0.00,4,Rain-Thunderstorm,50
2012-10-15,87,80,73,73,72,70,97,71,51,29.89,29.82,29.76,17,9,6,7,2,,0.00,4,,193
2012-10-16,91,82,73,76,74,72,100,68,49,29.84,29.80,29.73,17,9,6,5,1,,0.00,4,,289
2012-10-17,90,81,72,77,75,71,94,73,56,29.96,29.85,29.77,12,8,6,12,2,,0.00,5,,194
2012-10-18,87,80,73,73,71,69,95,73,51,29.83,29.81,29.78,17,9,6,7,1,,0.08,4,Rain-Thunderstorm,220
2012-10-19,88,82,76,77,75,73,94,82,66,29.84,29.80,29.74,17,8,6,7,1,,0.24,6,Thunderstorm,174
2012-10-20,89,80,72,75,72,70,94,79,56,29.82,29.79,29.72,16,8,5,7,2,,1.50,5,Rain-Thunderstorm,108
2012-10-21,90,82,73,75,74,73,100,82,62,29.87,29.80,29.74,16,8,6,7,1,,0.03,5,Thunderstorm,179
2012-10-22,91,82,73,72,70,68,94,59,42,29.83,29.78,29.72,17,10,6,7,2,,0.00,3,,217
2012-10-23,89,80,71,77,75,72,100,76,62,29.78,29.73,29.68,17,7,5,7,1,,0.00,6,Thunderstorm,250
2012-10-24,88,80,73,75,70,66,95,68,44,29.79,29.74,29.70,17,8,1,5,1,,0.94,4,Thunderstorm,207
2012-10-25,89,80,72,77,74,71,100,75,56,29.81,29.76,29.71,17,9,6,7,1,,0.00,4,,216
2012-10-26,90,82,73,72,71,70,94,62,42,29.80,29.77,29.73,17,9,6,7,2,,0.00,2,,183
2012-10-27,90,82,73,77,75,73,100,73,53,29.85,29.80,29.73,17,9,6,5,1,,0.00,4,,197
2012-10-28,92,82,71,72,70,68,88,59,38,29.90,29.83,29.75,17,9,6,9,5,,0.00,2,,30
2012-10-29,95,83,71,73,70,66,94,61,41,29.90,29.86,29.82,17,8,6,12,8,,0.00,4,,7
2012-10-30,93,83,73,73,72,70,94,64,41,29.88,29.85,29.81,17,9,6,7,3,,0.00,2,,21
2012-10-31,91,84,76,72,69,68,74,58,43,29.93,29.88,29.83,17,9,6,16,11,,0.00,3,,27